Flag for China Weather past 2 weeks in Lanzhou, Gansu, China

Now
61 °F

Passing clouds.


Feels Like: 61 °F
Forecast: 45 / 61 °F
Wind: 3 mph from Southwest

Location: Lanzhou / Zhongchuan

Current Time: Oct 21, 2014 at 3:27:41 PM

Latest Report: Oct 21, 2014 at 3:00 PM


Visibility: N/A

Pressure: 30.24 "Hg

Humidity: 39%

Dew point: 36 °F

Location of LanzhouLocation

Historic Weather in Lanzhou — Graph

°F

Lanzhou temperature yesterday

Maximum temperature yesterday: 59 °F (at 2:00 PM)
Minimum temperature yesterday: 39 °F (at 11:00 PM)
Average temperature yesterday: 48 °F

Past Weeks' High & Low Weather Summary

 TemperatureHumidityPressure
High70 °F (Oct 8, 3:00 PM)100% (Oct 9, 4:00 AM)30.60 "Hg (Oct 9, 4:00 AM)
Low30 °F (Oct 11, 6:00 AM)35% (Oct 15, 12:00 PM)29.92 "Hg (Oct 9, 4:00 PM)
Average46 °F74%30.25 "Hg
* Reported Oct 6 2:00 PM — Oct 21 2:00 PM, Lanzhou, Weather by CustomWeather, © 2014

Note: Actual official high and low records may vary slightly from our data, if they occured in-between our weather recording intervals... More about our weather records

Advertising

Lanzhou weather history for previous 24 hours

 ConditionsComfort  
Time TempWeatherWind HumidityBarometerVisibility
2:00 PM
Oct 21
57 °FPassing clouds.6 mph48%30.27 "HgN/A
1:00 PM55 °FPassing clouds.6 mph51%30.30 "HgN/A
12:00 PM52 °FPassing clouds.6 mph58%30.33 "HgN/A
11:00 AM48 °FPassing clouds.8 mph66%30.33 "HgN/A
10:00 AM45 °FPassing clouds.6 mph71%30.33 "HgN/A
9:00 AM39 °FClear.1 mph87%30.33 "Hg4 mi
8:00 AM32 °FIce fog.1 mph100%30.33 "Hg2 mi
7:00 AM32 °FIce fog.3 mph93%30.30 "Hg2 mi
6:00 AM32 °FIce fog.3 mph93%30.27 "Hg2 mi
5:00 AM32 °FIce fog.1 mph100%30.27 "Hg2 mi
4:00 AM34 °FFog.3 mph93%30.27 "Hg2 mi
3:00 AM34 °FFog.3 mph93%30.30 "Hg2 mi
2:00 AM36 °FFog.1 mph93%30.30 "Hg2 mi
1:00 AM37 °FFog.6 mph93%30.30 "Hg2 mi
12:00 AM37 °FClear.3 mph93%30.33 "Hg5 mi
11:00 PM
Oct 20
39 °FClear.1 mph87%30.33 "Hg10 mi
10:00 PM41 °FClear.6 mph93%30.30 "Hg10 mi
9:00 PM43 °FPassing clouds.6 mph93%30.30 "HgN/A
8:00 PM45 °FThunderstorms. Passing clouds.8 mph87%30.27 "HgN/A
7:00 PM48 °FThunderstorms. Scattered clouds.10 mph76%30.24 "HgN/A
6:00 PM46 °FThunderstorms. Scattered clouds.15 mph82%30.21 "HgN/A
5:00 PM57 °FPassing clouds.8 mph44%30.15 "HgN/A
4:00 PM59 °FPassing clouds.10 mph45%30.15 "HgN/A
3:00 PM59 °FPassing clouds.10 mph39%30.15 "HgN/A
Weather by CustomWeather, © 2014

See weather overviewHow to use our weather pages